OK,51,72,810,51,2014-10-01T01:40:00,0,28072580,180547
OK,51,72,810,51,2014-10-01T01:45:00,0,28073027,180547
OK,51,72,810,51,2014-10-01T01:50:00,0,28073476,180547
OK,51,72,810,51,2014-10-01T01:55:00,0,28073794,180547
OK,51,72,810,51,2014-10-01T02:00:00,0,28074242,180547
OK,69,53,810,69,2014-10-01T02:05:00,1,28074685,180547
OK,78,47,810,78,2014-10-01T02:10:00,1,28075131,180547
OK,78,47,810,78,2014-10-01T02:20:00,0,28075580,180547
OK,78,47,810,78,2014-10-01T02:25:00,0,28076412,180547
OK,78,47,810,78,2014-10-01T02:30:00,0,28076861,180547
OK,80,45,810,80,2014-10-01T02:40:00,0,28077310,180547
OK,80,45,810,80,2014-10-01T02:50:00,0,28078162,180547
OK,41,89,810,41,2014-10-01T03:00:00,1,28079056,180547
OK,40,91,810,40,2014-10-01T03:10:00,1,28079947,180547
OK,51,72,810,51,2014-10-01T03:15:00,1,28080730,180547
OK,98,37,810,98,2014-10-01T03:25:00,3,28081179,180547
OK,52,70,810,52,2014-10-01T03:30:00,1,28081626,180547
OK,74,49,810,74,2014-10-01T03:35:00,1,28082075,180547
OK,74,49,810,74,2014-10-01T03:40:00,3,28082944,180547
OK,116,31,810,116,2014-10-01T03:50:00,0,28083389,180547
OK,48,76,810,48,2014-10-01T03:55:00,1,28083838,180547
OK,56,65,810,56,2014-10-01T04:00:00,3,28084287,180547
OK,70,52,810,70,2014-10-01T04:10:00,2,28085153,180547
OK,74,49,810,74,2014-10-01T04:15:00,5,28085601,180547
OK,80,45,810,80,2014-10-01T04:20:00,3,28086047,180547
OK,59,62,810,59,2014-10-01T04:25:00,1,28086495,180547
OK,59,62,810,59,2014-10-01T04:30:00,1,28086938,180547
OK,90,40,810,90,2014-10-01T04:40:00,13,28087832,180547
OK,89,41,810,89,2014-10-01T04:45:00,11,28088705,180547
OK,99,37,810,99,2014-10-01T04:50:00,12,28089139,180547
OK,101,36,810,101,2014-10-01T05:00:00,11,28089584,180547
OK,97,37,810,97,2014-10-01T05:05:00,8,28090033,180547
OK,105,34,810,105,2014-10-01T05:10:00,11,28090826,180547
OK,113,32,810,113,2014-10-01T05:20:00,15,28091275,180547
OK,111,33,810,111,2014-10-01T05:25:00,14,28092141,180547
OK,106,34,810,106,2014-10-01T05:30:00,14,28092586,180547
OK,107,34,810,107,2014-10-01T05:35:00,12,28093029,180547
OK,111,33,810,111,2014-10-01T05:40:00,12,28093459,180547
OK,112,32,810,112,2014-10-01T05:50:00,21,28093906,180547
OK,113,32,810,113,2014-10-01T05:55:00,13,28094762,180547
OK,121,30,810,121,2014-10-01T06:00:00,14,28095210,180547
OK,114,32,810,114,2014-10-01T06:10:00,17,28095658,180547
OK,107,34,810,107,2014-10-01T06:15:00,18,28096520,180547
OK,108,34,810,108,2014-10-01T06:20:00,15,28096960,180547
OK,111,33,810,111,2014-10-01T06:25:00,13,28097403,180547
OK,98,37,810,98,2014-10-01T06:35:00,13,28097852,180547
OK,98,37,810,98,2014-10-01T06:40:00,4,28098300,180547
OK,108,34,810,108,2014-10-01T06:45:00,11,28098737,180547
OK,106,34,810,106,2014-10-01T06:50:00,16,28099535,180547
OK,95,38,810,95,2014-10-01T07:00:00,11,28099973,180547
OK,104,35,810,104,2014-10-01T07:05:00,5,28100729,180547
OK,104,35,810,104,2014-10-01T07:10:00,4,28101104,180547
OK,94,39,810,94,2014-10-01T07:20:00,14,28101549,180547
OK,81,45,810,81,2014-10-01T07:30:00,7,28102434,180547
OK,79,46,810,79,2014-10-01T07:35:00,9,28102882,180547
OK,83,44,810,83,2014-10-01T07:40:00,11,28103309,180547
OK,90,40,810,90,2014-10-01T07:45:00,11,28103756,180547
OK,95,38,810,95,2014-10-01T07:50:00,4,28104201,180547
OK,93,39,810,93,2014-10-01T07:55:00,0,28105084,180547
OK,98,37,810,98,2014-10-01T08:00:00,7,28105528,180547
OK,99,37,810,99,2014-10-01T08:05:00,10,28105973,180547
OK,102,36,810,102,2014-10-01T08:10:00,10,28106413,180547
OK,97,37,810,97,2014-10-01T08:15:00,22,28106820,180547
OK,94,39,810,94,2014-10-01T08:20:00,19,28107248,180547
OK,94,39,810,94,2014-10-01T08:25:00,6,28107697,180547
OK,95,38,810,95,2014-10-01T08:30:00,12,28108137,180547
OK,103,35,810,103,2014-10-01T08:40:00,13,28108585,180547
OK,99,37,810,99,2014-10-01T08:45:00,19,28109462,180547
OK,86,42,810,86,2014-10-01T08:50:00,13,28109810,180547
OK,90,40,810,90,2014-10-01T08:55:00,14,28110254,180547
OK,90,40,810,90,2014-10-01T09:00:00,16,28110680,180547
OK,86,42,810,86,2014-10-01T09:05:00,8,28111126,180547
OK,93,39,810,93,2014-10-01T09:10:00,7,28111558,180547
OK,98,37,810,98,2014-10-01T09:15:00,9,28112004,180547
OK,99,37,810,99,2014-10-01T09:20:00,6,28112349,180547
OK,100,36,810,100,2014-10-01T09:25:00,5,28112794,180547
OK,91,40,810,91,2014-10-01T09:30:00,0,28113222,180547
OK,95,38,810,95,2014-10-01T09:35:00,12,28113667,180547
OK,91,40,810,91,2014-10-01T09:40:00,8,28114100,180547
OK,86,42,810,86,2014-10-01T09:45:00,3,28114548,180547
OK,100,36,810,100,2014-10-01T09:50:00,7,28114904,180547
OK,99,37,810,99,2014-10-01T10:00:00,12,28115351,180547
OK,95,38,810,95,2014-10-01T10:10:00,13,28116212,180547
OK,67,54,810,67,2014-10-01T10:15:00,6,28117069,180547
OK,98,37,810,98,2014-10-01T10:20:00,7,28117497,180547
OK,99,37,810,99,2014-10-01T10:25:00,9,28117943,180547
OK,77,47,810,77,2014-10-01T10:30:00,3,28118388,180547
OK,92,39,810,92,2014-10-01T10:35:00,4,28118836,180547
OK,98,37,810,98,2014-10-01T10:40:00,5,28119279,180547
OK,99,37,810,99,2014-10-01T10:45:00,4,28119727,180547
OK,101,36,810,101,2014-10-01T10:50:00,5,28120175,180547
OK,92,39,810,92,2014-10-01T10:55:00,7,28120624,180547
OK,94,39,810,94,2014-10-01T11:00:00,8,28121011,180547
OK,93,39,810,93,2014-10-01T11:05:00,6,28121456,180547
OK,97,37,810,97,2014-10-01T11:10:00,9,28121895,180547
OK,94,39,810,94,2014-10-01T11:15:00,13,28122343,180547
OK,92,39,810,92,2014-10-01T11:20:00,10,28122785,180547
OK,94,39,810,94,2014-10-01T11:25:00,8,28123233,180547
OK,103,35,810,103,2014-10-01T11:30:00,9,28123667,180547
OK,97,37,810,97,2014-10-01T11:40:00,11,28124114,180547
OK,95,38,810,95,2014-10-01T11:45:00,11,28124965,180547
OK,100,36,810,100,2014-10-01T11:50:00,17,28125396,180547
OK,100,36,810,100,2014-10-01T11:55:00,14,28125843,180547
OK,98,37,810,98,2014-10-01T12:00:00,12,28126197,180547
OK,100,36,810,100,2014-10-01T12:05:00,19,28126644,180547
OK,104,35,810,104,2014-10-01T12:10:00,16,28127093,180547
OK,98,37,810,98,2014-10-01T12:15:00,19,28127542,180547
OK,94,39,810,94,2014-10-01T12:20:00,17,28127972,180547
OK,103,35,810,103,2014-10-01T12:25:00,17,28128419,180547
OK,110,33,810,110,2014-10-01T12:30:00,19,28128856,180547
OK,110,33,810,110,2014-10-01T12:35:00,11,28129303,180547
OK,101,36,810,101,2014-10-01T12:40:00,6,28129738,180547
OK,110,33,810,110,2014-10-01T12:45:00,9,28130186,180547
OK,108,34,810,108,2014-10-01T12:50:00,17,28130616,180547
OK,107,34,810,107,2014-10-01T12:55:00,14,28131063,180547
OK,104,35,810,104,2014-10-01T13:00:00,8,28131502,180547
OK,99,37,810,99,2014-10-01T13:05:00,11,28131949,180547
OK,99,37,810,99,2014-10-01T13:10:00,10,28132388,180547
OK,102,36,810,102,2014-10-01T13:15:00,12,28132834,180547
OK,105,34,810,105,2014-10-01T13:20:00,15,28133272,180547
OK,105,34,810,105,2014-10-01T13:25:00,17,28133721,180547
OK,96,38,810,96,2014-10-01T13:30:00,18,28134160,180547
OK,102,36,810,102,2014-10-01T13:35:00,13,28134609,180547
OK,103,35,810,103,2014-10-01T13:40:00,14,28135029,180547
OK,107,34,810,107,2014-10-01T13:45:00,16,28135477,180547
OK,106,34,810,106,2014-10-01T13:50:00,13,28135914,180547
OK,103,35,810,103,2014-10-01T13:55:00,17,28136363,180547
OK,100,36,810,100,2014-10-01T14:00:00,19,28136803,180547
OK,97,37,810,97,2014-10-01T14:05:00,12,28137252,180547
OK,110,33,810,110,2014-10-01T14:10:00,14,28137687,180547
OK,108,34,810,108,2014-10-01T14:15:00,16,28138135,180547
OK,106,34,810,106,2014-10-01T14:20:00,11,28138564,180547
OK,112,32,810,112,2014-10-01T14:25:00,15,28139012,180547
OK,110,33,810,110,2014-10-01T14:30:00,15,28139424,180547
OK,107,34,810,107,2014-10-01T14:35:00,7,28139872,180547
OK,101,36,810,101,2014-10-01T14:40:00,10,28140315,180547
OK,107,34,810,107,2014-10-01T14:45:00,14,28140763,180547
OK,107,34,810,107,2014-10-01T14:50:00,9,28141191,180547
OK,99,37,810,99,2014-10-01T14:55:00,13,28141638,180547
OK,104,35,810,104,2014-10-01T15:00:00,12,28142068,180547
OK,107,34,810,107,2014-10-01T15:05:00,11,28142515,180547
OK,104,35,810,104,2014-10-01T15:10:00,8,28142945,180547
OK,105,34,810,105,2014-10-01T15:15:00,6,28143391,180547
OK,105,34,810,105,2014-10-01T15:20:00,6,28143839,180547
OK,96,38,810,96,2014-10-01T15:25:00,11,28144288,180547
OK,97,37,810,97,2014-10-01T15:30:00,14,28144715,180547
OK,94,39,810,94,2014-10-01T15:35:00,10,28145123,180547
OK,90,40,810,90,2014-10-01T15:40:00,5,28145572,180547
OK,99,37,810,99,2014-10-01T15:45:00,7,28146021,180547
OK,98,37,810,98,2014-10-01T15:55:00,8,28146470,180547
OK,94,39,810,94,2014-10-01T16:00:00,3,28147323,180547
OK,94,39,810,94,2014-10-01T16:05:00,7,28147771,180547
OK,81,45,810,81,2014-10-01T16:10:00,5,28148174,180547
OK,114,32,810,114,2014-10-01T16:15:00,4,28148621,180547
OK,104,35,810,104,2014-10-01T16:20:00,8,28149062,180547
OK,100,36,810,100,2014-10-01T16:25:00,7,28149509,180547
OK,100,36,810,100,2014-10-01T16:30:00,4,28149938,180547
OK,147,24,810,147,2014-10-01T16:35:00,3,28150384,180547
OK,126,29,810,126,2014-10-01T16:40:00,2,28150805,180547
OK,100,36,810,100,2014-10-01T16:45:00,5,28151251,180547
OK,95,38,810,95,2014-10-01T16:55:00,3,28151700,180547
OK,95,38,810,95,2014-10-01T17:00:00,7,28152149,180547
OK,101,36,810,101,2014-10-01T17:05:00,4,28152595,180547
OK,91,40,810,91,2014-10-01T17:10:00,7,28153042,180547
OK,93,39,810,93,2014-10-01T17:20:00,9,28153491,180547
OK,91,40,810,91,2014-10-01T17:25:00,6,28154350,180547
OK,98,37,810,98,2014-10-01T17:30:00,3,28154793,180547
OK,96,38,810,96,2014-10-01T17:35:00,6,28155240,180547
OK,93,39,810,93,2014-10-01T17:40:00,7,28155664,180547
OK,92,39,810,92,2014-10-01T17:45:00,5,28156107,180547
OK,52,70,810,52,2014-10-01T17:50:00,4,28156556,180547
OK,94,39,810,94,2014-10-01T17:55:00,5,28156995,180547
OK,94,39,810,94,2014-10-01T18:00:00,5,28157427,180547
OK,67,54,810,67,2014-10-01T18:05:00,3,28157872,180547
OK,64,57,810,64,2014-10-01T18:10:00,2,28158316,180547
OK,90,40,810,90,2014-10-01T18:15:00,2,28158763,180547
OK,74,49,810,74,2014-10-01T18:20:00,4,28159208,180547
OK,70,52,810,70,2014-10-01T18:25:00,4,28159544,180547
OK,66,55,810,66,2014-10-01T18:30:00,2,28159992,180547
OK,53,69,810,53,2014-10-01T18:35:00,0,28160441,180547
OK,67,54,810,67,2014-10-01T18:40:00,2,28160881,180547
OK,54,68,810,54,2014-10-01T18:45:00,6,28161328,180547
OK,53,69,810,53,2014-10-01T18:50:00,4,28161746,180547
OK,89,41,810,89,2014-10-01T19:00:00,3,28162194,180547
OK,77,47,810,77,2014-10-01T19:05:00,2,28163028,180547
OK,86,42,810,86,2014-10-01T19:10:00,3,28163475,180547
OK,91,40,810,91,2014-10-01T19:15:00,8,28163924,180547
OK,94,39,810,94,2014-10-01T19:20:00,8,28164357,180547
OK,96,38,810,96,2014-10-01T19:25:00,3,28164804,180547
OK,92,39,810,92,2014-10-01T19:30:00,4,28165233,180547
OK,94,39,810,94,2014-10-01T19:35:00,6,28165677,180547
OK,96,38,810,96,2014-10-01T19:40:00,2,28166118,180547
OK,97,37,810,97,2014-10-01T19:45:00,3,28166480,180547
OK,97,37,810,97,2014-10-01T19:50:00,3,28166929,180547
OK,98,37,810,98,2014-10-01T19:55:00,2,28167358,180547
OK,96,38,810,96,2014-10-01T20:00:00,5,28167792,180547
OK,96,38,810,96,2014-10-01T20:05:00,3,28168240,180547
OK,111,33,810,111,2014-10-01T20:10:00,1,28168685,180547
OK,110,33,810,110,2014-10-01T20:15:00,1,28169134,180547
OK,110,33,810,110,2014-10-01T20:20:00,1,28169582,180547
OK,110,33,810,110,2014-10-01T20:25:00,0,28170008,180547
OK,110,33,810,110,2014-10-01T20:30:00,0,28170453,180547
OK,114,32,810,114,2014-10-01T20:35:00,4,28170901,180547
OK,116,31,810,116,2014-10-01T20:40:00,5,28171338,180547
OK,118,31,810,118,2014-10-01T20:45:00,3,28171784,180547
OK,41,89,810,41,2014-10-01T20:50:00,3,28172232,180547
OK,40,91,810,40,2014-10-01T20:55:00,1,28172678,180547
OK,40,91,810,40,2014-10-01T21:00:00,1,28173124,180547
OK,53,69,810,53,2014-10-01T21:05:00,1,28173573,180547
OK,91,40,810,91,2014-10-01T21:10:00,2,28174014,180547
OK,105,34,810,105,2014-10-01T21:15:00,4,28174463,180547
OK,100,36,810,100,2014-10-01T21:20:00,2,28174889,180547
OK,89,41,810,89,2014-10-01T21:25:00,0,28175285,180547
OK,106,34,810,106,2014-10-01T21:30:00,1,28175734,180547
OK,58,63,810,58,2014-10-01T21:35:00,4,28176183,180547
OK,65,56,810,65,2014-10-01T21:45:00,2,28176632,180547
OK,69,53,810,69,2014-10-01T21:50:00,1,28177428,180547
OK,69,53,810,69,2014-10-01T21:55:00,0,28177874,180547
OK,69,53,810,69,2014-10-01T22:00:00,0,28178323,180547
OK,69,53,810,69,2014-10-01T22:05:00,0,28178770,180547
OK,69,53,810,69,2014-10-01T22:10:00,0,28179206,180547
OK,69,53,810,69,2014-10-01T22:15:00,0,28179647,180547
OK,54,68,810,54,2014-10-01T22:20:00,1,28180094,180547
OK,54,68,810,54,2014-10-01T22:25:00,0,28180493,180547
OK,54,68,810,54,2014-10-01T22:30:00,0,28180941,180547
OK,54,68,810,54,2014-10-01T22:35:00,0,28181365,180547
OK,54,68,810,54,2014-10-01T22:40:00,0,28181813,180547
OK,82,44,810,82,2014-10-01T22:45:00,1,28182260,180547
OK,78,47,810,78,2014-10-01T22:50:00,2,28182709,180547
OK,75,48,810,75,2014-10-01T22:55:00,0,28183126,180547
OK,75,48,810,75,2014-10-01T23:00:00,0,28183559,180547
OK,75,48,810,75,2014-10-01T23:05:00,0,28184004,180547
OK,75,48,810,75,2014-10-01T23:10:00,0,28184453,180547
OK,75,48,810,75,2014-10-01T23:15:00,0,28184888,180547
OK,60,61,810,60,2014-10-01T23:20:00,1,28185336,180547
OK,60,61,810,60,2014-10-01T23:25:00,0,28185767,180547
OK,60,61,810,60,2014-10-01T23:30:00,0,28186159,180547
OK,55,66,810,55,2014-10-01T23:40:00,1,28187006,180547
OK,57,64,810,57,2014-10-01T23:45:00,1,28187448,180547
OK,57,64,810,57,2014-10-01T23:50:00,0,28187897,180547
OK,57,64,810,57,2014-10-01T23:55:00,0,28188338,180547
OK,79,46,810,79,2014-10-02T00:00:00,1,28188774,180547
OK,79,46,810,79,2014-10-02T00:05:00,0,28189223,180547
OK,79,46,810,79,2014-10-02T00:10:00,0,28189648,180547
OK,79,46,810,79,2014-10-02T00:15:00,0,28190094,180547
OK,79,46,810,79,2014-10-02T00:20:00,0,28190450,180547
OK,79,46,810,79,2014-10-02T00:25:00,0,28190896,180547
OK,79,46,810,79,2014-10-02T00:30:00,0,28191345,180547
OK,49,74,810,49,2014-10-02T00:35:00,0,28191654,180547
OK,49,74,810,49,2014-10-02T00:40:00,0,28192100,180547
OK,49,74,810,49,2014-10-02T00:45:00,0,28192534,180547
OK,49,74,810,49,2014-10-02T00:50:00,0,28192977,180547
OK,49,74,810,49,2014-10-02T00:55:00,0,28193344,180547
OK,49,74,810,49,2014-10-02T01:00:00,0,28193793,180547
OK,49,74,810,49,2014-10-02T01:05:00,0,28194242,180547
OK,49,74,810,49,2014-10-02T01:15:00,0,28194691,180547
OK,49,74,810,49,2014-10-02T01:20:00,0,28195376,180547
OK,49,74,810,49,2014-10-02T01:30:00,0,28195825,180547
OK,49,74,810,49,2014-10-02T01:35:00,0,28196558,180547
OK,49,74,810,49,2014-10-02T01:40:00,0,28196983,180547
OK,49,74,810,49,2014-10-02T01:45:00,0,28197430,180547
OK,49,74,810,49,2014-10-02T01:50:00,0,28197878,180547
OK,49,74,810,49,2014-10-02T01:55:00,0,28198326,180547
OK,49,74,810,49,2014-10-02T02:05:00,0,28198775,180547
OK,49,74,810,49,2014-10-02T02:10:00,0,28199589,180547
OK,49,74,810,49,2014-10-02T02:15:00,0,28200031,180547
OK,49,74,810,49,2014-10-02T02:20:00,0,28200474,180547
OK,49,74,810,49,2014-10-02T02:25:00,0,28200923,180547
OK,49,74,810,49,2014-10-02T02:30:00,0,28201354,180547
OK,49,74,810,49,2014-10-02T02:45:00,0,28202252,180547
OK,104,35,810,104,2014-10-02T02:50:00,2,28202694,180547
OK,136,27,810,136,2014-10-02T02:55:00,0,28203142,180547
OK,47,78,810,47,2014-10-02T03:00:00,1,28203577,180547
OK,47,78,810,47,2014-10-02T03:10:00,0,28204026,180547
OK,62,59,810,62,2014-10-02T03:25:00,1,28204475,180547
OK,62,59,810,62,2014-10-02T03:30:00,0,28204924,180547
OK,62,59,810,62,2014-10-02T03:35:00,0,28205354,180547
OK,62,59,810,62,2014-10-02T03:40:00,0,28205799,180547
OK,59,62,810,59,2014-10-02T03:45:00,1,28206182,180547
OK,59,62,810,59,2014-10-02T03:55:00,0,28207080,180547
OK,59,62,810,59,2014-10-02T04:00:00,0,28207502,180547
OK,59,62,810,59,2014-10-02T04:05:00,0,28207948,180547
OK,54,68,810,54,2014-10-02T04:10:00,2,28208378,180547
OK,55,66,810,55,2014-10-02T04:15:00,0,28208824,180547
OK,83,44,810,83,2014-10-02T04:20:00,1,28209263,180547
OK,83,44,810,83,2014-10-02T04:25:00,0,28209711,180547
OK,72,51,810,72,2014-10-02T04:30:00,3,28210137,180547
OK,72,51,810,72,2014-10-02T04:35:00,1,28210583,180547
OK,67,54,810,67,2014-10-02T04:40:00,9,28211012,180547
OK,67,54,810,67,2014-10-02T04:45:00,0,28211452,180547
OK,67,54,810,67,2014-10-02T04:50:00,0,28211830,180547
OK,88,41,810,88,2014-10-02T04:55:00,8,28212279,180547
OK,80,45,810,80,2014-10-02T05:00:00,0,28212712,180547
OK,83,44,810,83,2014-10-02T05:05:00,6,28213157,180547
OK,127,28,810,127,2014-10-02T05:10:00,0,28213598,180547
OK,101,36,810,101,2014-10-02T05:20:00,2,28214044,180547
OK,83,44,810,83,2014-10-02T05:30:00,5,28214906,180547
OK,93,39,810,93,2014-10-02T05:40:00,20,28215771,180547
OK,91,40,810,91,2014-10-02T05:45:00,12,28216550,180547
OK,94,39,810,94,2014-10-02T05:50:00,0,28216997,180547
OK,113,32,810,113,2014-10-02T05:55:00,21,28217446,180547
OK,111,33,810,111,2014-10-02T06:00:00,13,28217885,180547
OK,94,39,810,94,2014-10-02T06:05:00,8,28218334,180547
OK,93,39,810,93,2014-10-02T06:10:00,0,28218758,180547
OK,113,32,810,113,2014-10-02T06:15:00,19,28219203,180547
OK,79,46,810,79,2014-10-02T06:20:00,23,28219578,180547
OK,77,47,810,77,2014-10-02T06:25:00,23,28220025,180547
OK,78,47,810,78,2014-10-02T06:30:00,17,28220461,180547
OK,85,43,810,85,2014-10-02T06:40:00,12,28220908,180547
OK,69,53,810,69,2014-10-02T06:45:00,11,28221575,180547
OK,82,44,810,82,2014-10-02T07:00:00,14,28222169,180547
OK,59,62,810,59,2014-10-02T07:05:00,12,28222618,180547
OK,55,66,810,55,2014-10-02T07:10:00,12,28223051,180547
OK,55,66,810,55,2014-10-02T07:15:00,6,28223485,180547
OK,54,68,810,54,2014-10-02T07:20:00,0,28223932,180547
OK,79,46,810,79,2014-10-02T07:25:00,9,28224287,180547
OK,98,37,810,98,2014-10-02T07:30:00,3,28224736,180547
OK,91,40,810,91,2014-10-02T07:35:00,13,28225185,180547
OK,125,29,810,125,2014-10-02T07:40:00,5,28225515,180547
OK,90,40,810,90,2014-10-02T07:50:00,8,28226398,180547
OK,158,23,810,158,2014-10-02T08:00:00,5,28226846,180547
OK,82,44,810,82,2014-10-02T08:05:00,13,28227710,180547
OK,79,46,810,79,2014-10-02T08:10:00,2,28228073,180547
OK,91,40,810,91,2014-10-02T08:20:00,4,28228518,180547
OK,89,41,810,89,2014-10-02T08:25:00,11,28229377,180547
OK,90,40,810,90,2014-10-02T08:30:00,3,28229732,180547
OK,62,59,810,62,2014-10-02T08:40:00,2,28230176,180547
OK,54,68,810,54,2014-10-02T08:45:00,0,28230991,180547
OK,72,51,810,72,2014-10-02T08:50:00,12,28231418,180547
OK,90,40,810,90,2014-10-02T08:55:00,3,28231863,180547
OK,86,42,810,86,2014-10-02T09:00:00,5,28232208,180547
OK,82,44,810,82,2014-10-02T09:10:00,0,28232654,180547
OK,89,41,810,89,2014-10-02T09:15:00,12,28233103,180547
OK,109,33,810,109,2014-10-02T09:20:00,6,28233531,180547
OK,57,64,810,57,2014-10-02T09:25:00,9,28233976,180547
OK,66,55,810,66,2014-10-02T09:30:00,4,28234311,180547
OK,81,45,810,81,2014-10-02T09:35:00,6,28234758,180547
OK,109,33,810,109,2014-10-02T09:40:00,0,28235185,180547
OK,92,39,810,92,2014-10-02T09:45:00,8,28235634,180547
OK,96,38,810,96,2014-10-02T09:50:00,3,28236078,180547
OK,82,44,810,82,2014-10-02T09:55:00,8,28236524,180547
OK,79,46,810,79,2014-10-02T10:00:00,0,28236929,180547
OK,79,46,810,79,2014-10-02T10:05:00,0,28237375,180547
OK,85,43,810,85,2014-10-02T10:10:00,12,28237823,180547
OK,84,43,810,84,2014-10-02T10:15:00,9,28238271,180547
OK,84,43,810,84,2014-10-02T10:20:00,9,28238712,180547
OK,129,28,810,129,2014-10-02T10:25:00,6,28239160,180547
OK,154,23,810,154,2014-10-02T10:30:00,1,28239591,180547
OK,84,43,810,84,2014-10-02T10:35:00,13,28240039,180547
OK,86,42,810,86,2014-10-02T10:40:00,17,28240484,180547
OK,100,36,810,100,2014-10-02T10:45:00,12,28240932,180547
OK,75,48,810,75,2014-10-02T10:50:00,5,28241366,180547
OK,71,51,810,71,2014-10-02T10:55:00,8,28241812,180547
OK,146,25,810,146,2014-10-02T11:00:00,1,28242210,180547
OK,146,25,810,146,2014-10-02T11:05:00,0,28242657,180547
OK,93,39,810,93,2014-10-02T11:15:00,12,28243106,180547
OK,107,34,810,107,2014-10-02T11:20:00,6,28243870,180547
OK,118,31,810,118,2014-10-02T11:25:00,2,28244299,180547
OK,118,31,810,118,2014-10-02T11:30:00,0,28244747,180547
OK,83,44,810,83,2014-10-02T11:35:00,19,28245196,180547
OK,76,48,810,76,2014-10-02T11:40:00,7,28245605,180547
OK,70,52,810,70,2014-10-02T11:45:00,0,28246051,180547
OK,83,44,810,83,2014-10-02T11:50:00,15,28246488,180547
OK,80,45,810,80,2014-10-02T11:55:00,13,28246937,180547
OK,77,47,810,77,2014-10-02T12:00:00,8,28247383,180547
OK,85,43,810,85,2014-10-02T12:05:00,2,28247815,180547
OK,70,52,810,70,2014-10-02T12:10:00,0,28248262,180547
OK,93,39,810,93,2014-10-02T12:15:00,8,28248710,180547
OK,93,39,810,93,2014-10-02T12:20:00,2,28249138,180547
OK,89,41,810,89,2014-10-02T12:25:00,13,28249581,180547
OK,91,40,810,91,2014-10-02T12:30:00,2,28250000,180547
OK,101,36,810,101,2014-10-02T12:35:00,18,28250398,180547
OK,107,34,810,107,2014-10-02T12:45:00,19,28251178,180547
OK,135,27,810,135,2014-10-02T13:20:00,24,28251723,180547
OK,118,31,810,118,2014-10-02T13:30:00,13,28252307,180547
OK,102,36,810,102,2014-10-02T13:35:00,5,28252749,180547
OK,101,36,810,101,2014-10-02T13:40:00,0,28253166,180547
OK,150,24,810,150,2014-10-02T13:45:00,23,28253615,180547
OK,136,27,810,136,2014-10-02T13:50:00,15,28254021,180547
OK,134,27,810,134,2014-10-02T13:55:00,16,28254341,180547
OK,94,39,810,94,2014-10-02T14:10:00,20,28254918,180547
OK,91,40,810,91,2014-10-02T14:15:00,18,28255367,180547
OK,83,44,810,83,2014-10-02T14:20:00,10,28255795,180547
OK,82,44,810,82,2014-10-02T14:25:00,3,28256244,180547
OK,122,30,810,122,2014-10-02T14:30:00,17,28256672,180547
OK,90,40,810,90,2014-10-02T14:35:00,22,28257121,180547
OK,95,38,810,95,2014-10-02T14:40:00,15,28257562,180547
OK,95,38,810,95,2014-10-02T14:45:00,11,28258010,180547
OK,89,41,810,89,2014-10-02T14:50:00,12,28258443,180547
OK,85,43,810,85,2014-10-02T14:55:00,5,28258889,180547
OK,88,41,810,88,2014-10-02T15:00:00,9,28259338,180547
OK,79,46,810,79,2014-10-02T15:05:00,11,28259785,180547
OK,80,45,810,80,2014-10-02T15:10:00,12,28260218,180547
OK,80,45,810,80,2014-10-02T15:15:00,10,28260667,180547
OK,79,46,810,79,2014-10-02T15:20:00,3,28261107,180547
OK,70,52,810,70,2014-10-02T15:25:00,22,28261489,180547
OK,71,51,810,71,2014-10-02T15:30:00,7,28261919,180547
OK,71,51,810,71,2014-10-02T15:35:00,9,28262366,180547
OK,67,54,810,67,2014-10-02T15:40:00,5,28262812,180547
OK,91,40,810,91,2014-10-02T15:45:00,8,28263250,180547
OK,91,40,810,91,2014-10-02T15:50:00,6,28263691,180547
OK,89,41,810,89,2014-10-02T15:55:00,0,28264093,180547
OK,89,41,810,89,2014-10-02T16:00:00,0,28264542,180547
OK,76,48,810,76,2014-10-02T16:05:00,4,28264980,180547
OK,71,51,810,71,2014-10-02T16:10:00,5,28265420,180547
OK,69,53,810,69,2014-10-02T16:15:00,4,28265816,180547
OK,67,54,810,67,2014-10-02T16:20:00,5,28266265,180547
OK,71,51,810,71,2014-10-02T16:25:00,4,28266714,180547
OK,65,56,810,65,2014-10-02T16:30:00,3,28267037,180547
OK,43,85,810,43,2014-10-02T16:35:00,1,28267486,180547
OK,43,85,810,43,2014-10-02T16:40:00,0,28267935,180547
OK,57,64,810,57,2014-10-02T16:45:00,1,28268377,180547
OK,57,64,810,57,2014-10-02T16:50:00,1,28268826,180547
OK,71,51,810,71,2014-10-02T16:55:00,10,28269275,180547
OK,73,50,810,73,2014-10-02T17:00:00,3,28269710,180547
OK,58,63,810,58,2014-10-02T17:05:00,1,28270159,180547
OK,58,63,810,58,2014-10-02T17:10:00,1,28270593,180547
OK,58,63,810,58,2014-10-02T17:15:00,0,28271042,180547
OK,93,39,810,93,2014-10-02T17:20:00,10,28271472,180547
OK,108,34,810,108,2014-10-02T17:25:00,6,28271920,180547
OK,48,76,810,48,2014-10-02T17:30:00,1,28272356,180547
OK,48,76,810,48,2014-10-02T17:35:00,0,28272797,180547
OK,48,76,810,48,2014-10-02T17:40:00,0,28273245,180547
OK,79,46,810,79,2014-10-02T17:45:00,5,28273691,180547
OK,71,51,810,71,2014-10-02T17:55:00,3,28274140,180547
OK,73,50,810,73,2014-10-02T18:00:00,1,28274914,180547
OK,89,41,810,89,2014-10-02T18:05:00,4,28275353,180547
OK,89,41,810,89,2014-10-02T18:10:00,0,28275798,180547
OK,89,41,810,89,2014-10-02T18:15:00,0,28276244,180547
OK,59,62,810,59,2014-10-02T18:20:00,2,28276640,180547